星链-32342 (STARLINK-32342)

导读

STARLINK-32342是美国于2024年9月20日发射的星链卫星,归属于SpaceX星链互联网星座项目。星链系统旨在通过近地轨道卫星群,为全球提供高速互联网服务,尤其覆盖偏远地区与网络基础设施薄弱区域。该卫星的发射是SpaceX持续扩充星链星座规模、提升全球网络覆盖能力与服务稳定性的一步,进一步推进星链项目的部署进程。

Basic Information
目录编号:
61217
目录名称:
STARLINK-32342
国际标识:
2024-171T
轨道中心:
EARTH
卫星名称:
星链-32342
卫星全名:
星链-32342 (STARLINK-32342)
卫星状态:
在轨 (已飞行632 天)
发射日期:
2024-09-20 UTC
国别 :
美国 (US)
星等 :
--
Orbit Information
数据来源 国际轨道数据 AOE轨道数据
星历时间 2026-06-14T06:20:13+0800
13小时前
查看轨道信息
2026-06-12T04:00:00+0800
2天前
查看轨道信息
半长轴 6853.37km 6853.373km
偏心率 0.0001226 0.0000956
轨道倾角 53.160° 53.158°
近地点辐角 89.288° 83.887°
升交点赤经 235.398° 245.142°
平近点角 270.827° 235.986°
近地点 474.392km 474.58km
远地点 476.074km 475.892km
周期 94.106分钟 94.106分钟
每日圈数 15.30194 15.30193
Detailed Information
固有亮度:
5
最大亮度:
2.5
卫星平台:
Starlink V1.0
覆盖范围:
全球
运营商:
太空探索技术公司
运营商所在国:
美国
制造商(研发单位):
太空探索技术公司
制造商所在国:
美国
使用方式:
暂无
Satellite Introduction
Starlink 计划是 SpaceX 推出的全球卫星互联网项目,通过发射低轨道卫星,为全球尤其是偏远地区提供高速、低延迟的互联网服务。自 2019 年起,Starlink 已部署数千颗卫星,旨在缩小全球数字鸿沟,推动互联网普及。该项目还为军事、航空等行业提供通信支持,带来广泛经济效益。
2D Orbit Map
3D Orbit Map
Orbit Altitude Analysis Chart
Orbit Inclination Analysis Chart
Orbit Comprehensive Analysis Chart
View Comprehensive Chart